Retour au catalogue

STARLINK-31727

ActifCommunicationsVLEO
NORAD 59638·PAYLOAD·🇺🇸 United States

Lancé May 3, 2024 depuis Cape Canaveral Space Force Station

Loading…

Prochains Passages (prochaines 24 heures)

TLE

FraisSource: CelesTrak SupGP

Époque: Sep 15, 2026, 02:46 UTC

1 59638C 24082H   26258.11576389  .00050308  00000+0  18225-2 0  2583
2 59638  43.0025 150.4279 0001544 275.8573 226.9923 15.27547419    15

Suivez STARLINK-31727 en temps réel avec AllMySat

Download on the App Store